Tracking 28790 objects as of 19-Apr-2024
HD Live streaming from Space Station
objects crossing your sky now

INTELSAT 3-F7

Track INTELSAT 3-F7 now!
INTELSAT 3-F7 is classified as:


NORAD ID: 4376
Int'l Code: 1970-032A
Perigee: 35,791.8 km
Apogee: 35,813.0 km
Inclination: 0.4 °
Period: 1,436.5 minutes
Semi major axis: 42173 km
RCS: 0.003 m2 (small)
Launch date: April 23, 1970
Source: International Telecommunications Satellite Organization (ITSO)
Launch site: AIR FORCE EASTERN TEST RANGE (AFETR)
Your satellite tracking list
Your tracking list is empty




NASA's NSSDC Master Catalog

Two Line Element Set (TLE):
1  4376U 70032A   24109.41002191  .00000027  00000-0  00000+0 0  9994
2  4376   0.4469 129.5418 0002520 221.1431   9.3033  1.00240913197755
Source of the keplerian elements: AFSPC